Date String (YYYY-MM-DD hh:mm:ss) UTC,Instrument flags,absolute air pressure of the measurement (hPa),sample flow rate (lpm),inlet stack bypass flow (lpm),air temperature of the measurement (°C),ambient temperature measured by the external sensor (°C),aerosol sample conditioner tube jacket temperature (°C),OPC LED temperature (°C),internal box temperature (°C),relative humidity of the measurement (%),span deviation,mass concentration of particles derived from Lorenz-Mie calculation of OPC scattering (μg/m³),mass concentration of particles derived from Lorenz-Mie calculation of OPC scattering (μg/m³),mass concentration of particles derived from Lorenz-Mie calculation of OPC scattering (μg/m³)
DateTimeUTC,F1_M11,P_M11,Q1_M11,Q2_M11,T1_M11,T2_M11,T3_M11,T4_M11,T5_M11,U1_M11,ZSPAN_M11,X0_M11,X2_M11,X1_M11
2023-06-30 07:00:00,SystemResetWarning,0835.0,5.00,000.00,030.0,028.5,000.0,038.6,031.5,26.1,0000.0,0005.66,0002.18,0001.53
2023-06-30 07:01:00,SystemResetWarning,0835.1,5.00,000.00,030.0,028.6,000.0,038.6,031.5,26.1,0000.0,0005.07,0002.20,0001.54
2023-06-30 07:02:00,SystemResetWarning,0835.1,4.99,000.00,030.0,028.6,000.0,038.6,031.5,26.0,0000.0,0004.69,0002.25,0001.56
2023-06-30 07:03:00,SystemResetWarning,0835.2,5.00,000.00,030.0,028.6,000.0,038.6,031.5,26.0,0000.0,0004.40,0002.28,0001.59
2023-06-30 07:04:00,SystemResetWarning,0835.2,5.00,000.00,030.0,028.7,000.0,038.6,031.5,26.0,0000.0,0004.78,0002.31,0001.63
2023-06-30 07:05:00,SystemResetWarning,0835.3,5.00,000.00,030.0,028.7,000.0,038.6,031.6,26.1,0000.0,0004.38,0002.32,0001.65
2023-06-30 07:06:00,SystemResetWarning,0835.3,5.01,000.00,030.0,028.7,000.0,038.6,031.6,26.1,0000.0,0004.45,0002.37,0001.70
2023-06-30 07:07:00,SystemResetWarning,0835.3,5.00,000.00,030.1,028.7,000.0,038.6,031.6,26.0,0000.0,0004.50,0002.45,0001.73
2023-06-30 07:08:00,SystemResetWarning,0835.3,5.01,000.00,030.1,028.8,000.0,038.6,031.6,26.0,0000.0,0004.56,0002.50,0001.75
2023-06-30 07:09:00,SystemResetWarning,0835.3,5.02,000.00,030.1,028.8,000.0,038.7,031.6,26.1,0000.0,0004.49,0002.48,0001.75
2023-06-30 07:10:00,SystemResetWarning,0835.2,5.00,000.00,030.1,028.8,000.0,038.6,031.7,26.0,0000.0,0004.48,0002.49,0001.76
2023-06-30 07:11:00,SystemResetWarning,0835.2,4.99,000.00,030.1,028.8,000.0,038.7,031.7,26.1,0000.0,0004.39,0002.46,0001.77
2023-06-30 07:12:00,SystemResetWarning,0835.2,5.00,000.00,030.1,028.8,000.0,038.7,031.7,26.1,0000.0,0004.53,0002.50,0001.78
2023-06-30 07:13:00,SystemResetWarning,0835.2,5.01,000.00,030.1,028.8,000.0,038.7,031.7,26.1,0000.0,0005.48,0002.43,0001.76
2023-06-30 07:14:00,SystemResetWarning,0835.2,4.99,000.00,030.1,028.9,000.0,038.7,031.7,26.2,0000.0,0005.52,0002.43,0001.76
2023-06-30 07:15:00,SystemResetWarning,0835.2,4.99,000.00,030.2,028.9,000.0,038.7,031.7,26.2,0000.0,0005.42,0002.41,0001.75
2023-06-30 07:16:00,SystemResetWarning,0835.3,5.00,000.00,030.2,028.9,000.0,038.7,031.7,26.2,0000.0,0004.91,0002.36,0001.74
2023-06-30 07:17:00,SystemResetWarning,0835.2,5.00,000.00,030.2,028.9,000.0,038.7,031.7,26.2,0000.0,0005.43,0002.34,0001.73
2023-06-30 07:18:00,SystemResetWarning,0835.3,5.00,000.00,030.2,028.9,000.0,038.8,031.7,26.3,0000.0,0006.09,0002.30,0001.71
2023-06-30 07:19:00,SystemResetWarning,0835.4,5.00,000.00,030.2,028.9,000.0,038.8,031.8,26.3,0000.0,0006.16,0002.24,0001.70
2023-06-30 07:20:00,SystemResetWarning,0835.3,4.99,000.00,030.2,028.9,000.0,038.8,031.7,26.3,0000.0,0006.75,0002.28,0001.70
2023-06-30 07:21:00,SystemResetWarning,0835.2,5.02,000.00,030.2,028.9,000.0,038.8,031.7,26.4,0000.0,0006.68,0002.25,0001.70
2023-06-30 07:22:00,SystemResetWarning,0835.3,5.00,000.00,030.2,028.9,000.0,038.8,031.8,26.5,0000.0,0006.69,0002.27,0001.71
2023-06-30 07:23:00,SystemResetWarning,0835.3,4.99,000.00,030.2,028.9,000.0,038.8,031.7,26.5,0000.0,0006.87,0002.29,0001.71
2023-06-30 07:24:00,SystemResetWarning,0835.3,4.99,000.00,030.2,028.9,000.0,038.8,031.7,26.6,0000.0,0006.16,0002.33,0001.73
2023-06-30 07:25:00,SystemResetWarning,0835.2,5.00,000.00,030.2,029.0,000.0,038.8,031.8,26.7,0000.0,0005.79,0002.33,0001.74
2023-06-30 07:26:00,SystemResetWarning,0835.3,5.00,000.00,030.3,029.0,000.0,038.8,031.8,26.7,0000.0,0005.87,0002.37,0001.75
2023-06-30 07:27:00,SystemResetWarning,0835.3,5.00,000.00,030.3,029.0,000.0,038.8,031.8,26.7,0000.0,0005.94,0002.42,0001.75
2023-06-30 07:28:00,SystemResetWarning,0835.3,5.01,000.00,030.3,029.0,000.0,038.8,031.8,26.7,0000.0,0005.31,0002.42,0001.77
2023-06-30 07:29:00,SystemResetWarning,0835.2,5.00,000.00,030.3,029.0,000.0,038.8,031.8,26.6,0000.0,0004.74,0002.49,0001.77
2023-06-30 07:30:00,SystemResetWarning,0835.2,5.00,000.00,030.3,029.0,000.0,038.9,031.8,26.6,0000.0,0004.76,0002.53,0001.78
2023-06-30 07:31:00,SystemResetWarning,0835.2,5.01,000.00,030.3,029.0,000.0,038.9,031.8,26.6,0000.0,0004.12,0002.54,0001.79
2023-06-30 07:32:00,SystemResetWarning,0835.2,4.99,000.00,030.3,029.0,000.0,038.9,031.8,26.7,0000.0,0004.09,0002.53,0001.80
2023-06-30 07:33:00,SystemResetWarning,0835.2,5.00,000.00,030.3,029.0,000.0,038.9,031.8,26.7,0000.0,0004.22,0002.58,0001.80
2023-06-30 07:34:00,SystemResetWarning,0835.3,5.01,000.00,030.3,029.0,000.0,038.9,031.8,26.7,0000.0,0004.04,0002.59,0001.81
2023-06-30 07:35:00,SystemResetWarning,0835.3,5.01,000.00,030.3,029.0,000.0,038.9,031.9,26.7,0000.0,0003.86,0002.57,0001.81
2023-06-30 07:36:00,SystemResetWarning,0835.3,4.99,000.00,030.4,029.0,000.0,038.9,031.9,26.7,0000.0,0003.89,0002.57,0001.82
2023-06-30 07:37:00,SystemResetWarning,0835.3,5.00,000.00,030.4,029.0,000.0,038.9,031.9,26.7,0000.0,0003.98,0002.63,0001.85
2023-06-30 07:38:00,SystemResetWarning,0835.3,5.00,000.00,030.4,029.1,000.0,038.9,031.9,26.7,0000.0,0004.00,0002.62,0001.86
2023-06-30 07:39:00,SystemResetWarning,0835.3,5.00,000.00,030.4,029.1,000.0,038.9,031.9,26.7,0000.0,0004.26,0002.62,0001.86
2023-06-30 07:40:00,SystemResetWarning,0835.2,4.99,000.00,030.4,029.1,000.0,038.9,031.9,26.7,0000.0,0004.16,0002.56,0001.87
2023-06-30 07:41:00,SystemResetWarning,0835.2,5.00,000.00,030.4,029.1,000.0,038.9,031.9,26.7,0000.0,0004.29,0002.59,0001.88
2023-06-30 07:42:00,SystemResetWarning,0835.3,5.00,000.00,030.4,029.1,000.0,039.0,031.9,26.7,0000.0,0004.16,0002.53,0001.88
2023-06-30 07:43:00,SystemResetWarning,0835.3,5.01,000.00,030.4,029.1,000.0,039.0,031.9,26.6,0000.0,0004.15,0002.53,0001.88
2023-06-30 07:44:00,SystemResetWarning,0835.3,5.01,000.00,030.4,029.1,000.0,039.0,031.9,26.6,0000.0,0004.11,0002.50,0001.88
2023-06-30 07:45:00,SystemResetWarning,0835.2,5.01,000.00,030.4,029.1,000.0,039.0,031.9,26.6,0000.0,0004.03,0002.45,0001.89
2023-06-30 07:46:00,SystemResetWarning,0835.2,4.98,000.00,030.4,029.1,000.0,039.0,031.9,26.7,0000.0,0004.02,0002.44,0001.89
2023-06-30 07:47:00,SystemResetWarning,0835.2,5.00,000.00,030.4,028.1,000.0,038.9,031.9,26.6,0000.0,0004.10,0002.45,0001.89
2023-06-30 07:48:00,SystemResetWarning,0835.2,5.00,000.00,030.4,026.0,000.0,038.8,031.6,26.6,0000.0,0003.95,0002.41,0001.87
2023-06-30 07:49:00,SystemResetWarning,0835.2,4.99,000.00,030.3,025.3,000.0,038.7,031.3,26.9,0000.0,0003.85,0002.40,0001.87
2023-06-30 07:50:00,SystemResetWarning,0835.3,5.01,000.00,030.1,025.5,000.0,038.7,031.0,27.2,0000.0,0004.45,0002.44,0001.87
2023-06-30 07:51:00,SystemResetWarning,0835.3,5.00,000.00,030.0,025.9,000.0,038.7,031.0,27.4,0000.0,0004.41,0002.44,0001.88
2023-06-30 07:52:00,SystemResetWarning,0835.3,4.99,000.00,029.9,026.3,000.0,038.7,031.1,27.4,0000.0,0004.43,0002.43,0001.88
2023-06-30 07:53:00,SystemResetWarning,0835.3,5.00,000.00,029.9,026.7,000.0,038.7,031.2,27.4,0000.0,0004.51,0002.44,0001.89
2023-06-30 07:54:00,SystemResetWarning,0835.3,5.01,000.00,029.9,027.1,000.0,038.6,031.2,27.5,0000.0,0004.59,0002.44,0001.89
2023-06-30 07:55:00,SystemResetWarning,0835.3,5.01,000.00,029.9,027.4,000.0,038.6,031.2,27.6,0000.0,0004.87,0002.43,0001.89
2023-06-30 07:56:00,SystemResetWarning,0835.3,5.00,000.00,029.9,027.6,000.0,038.6,031.3,27.7,0000.0,0005.77,0002.43,0001.88
2023-06-30 07:57:00,SystemResetWarning,0835.3,5.01,000.00,029.9,027.9,000.0,038.6,031.3,27.7,0000.0,0006.12,0002.45,0001.89
2023-06-30 07:58:00,SystemResetWarning,0835.3,5.00,000.00,029.9,028.0,000.0,038.6,031.3,27.7,0000.0,0006.21,0002.43,0001.89
2023-06-30 07:59:00,SystemResetWarning,0835.2,5.00,000.00,029.9,028.2,000.0,038.6,031.4,27.7,0000.0,0006.23,0002.43,0001.89
